| time (UTC) | temp C | wind direction | speed KPH | gust KPH | rain 1hr cm | rain 24hr cm | rain mn cm | humidity % | barometer mb |
| 20260509090040 | 10 | 174 | 4.8 | 0.0 | 0.00 | 0.00 | 0.00 | 88 | 1005.7 |
| 20260509084518 | 10 | 165 | 3.2 | 0.0 | 0.00 | 0.00 | 0.00 | 87 | 1005.7 |
| 20260509083032 | 10 | 127 | 6.4 | 0.0 | 0.00 | 0.00 | 0.00 | 86 | 1005.7 |
| 20260509081514 | 10 | 137 | 6.4 | 0.0 | 0.00 | 0.00 | 0.00 | 86 | 1005.8 |
| 20260509080012 | 10 | 149 | 4.8 | 0.0 | 0.00 | 0.00 | 0.00 | 85 | 1006.0 |
| 20260509074523 | 10 | 138 | 4.8 | 0.0 | 0.00 | 0.00 | 0.00 | 84 | 1006.1 |
| 20260509073008 | 10 | 154 | 4.8 | 0.0 | 0.00 | 0.00 | 0.00 | 83 | 1006.2 |
| 20260509071506 | 9 | 128 | 4.8 | 0.0 | 0.00 | 0.00 | 0.00 | 82 | 1006.1 |
| 20260509070005 | 9 | 140 | 6.4 | 0.0 | 0.00 | 0.00 | 0.00 | 81 | 1006.4 |
| 20260509064504 | 9 | 138 | 4.8 | 0.0 | 0.00 | 0.00 | 0.00 | 80 | 1006.6 |
| 20260509063003 | 9 | 139 | 6.4 | 0.0 | 0.00 | 0.00 | 0.00 | 80 | 1006.6 |
| 20260509061500 | 9 | 131 | 4.8 | 0.0 | 0.00 | 0.00 | 0.00 | 80 | 1006.8 |
| 20260509060100 | 8 | 131 | 4.8 | 0.0 | 0.00 | 0.00 | 0.00 | 79 | 1006.8 |
| 20260509054559 | 8 | 122 | 3.2 | 0.0 | 0.00 | 0.00 | 0.00 | 78 | 1007.2 |
| 20260509053057 | 8 | 132 | 3.2 | 0.0 | 0.00 | 0.00 | 0.00 | 77 | 1007.4 |
| 20260509051602 | 8 | 157 | 3.2 | 0.0 | 0.00 | 0.00 | 0.00 | 76 | 1007.7 |
| 20260509050101 | 8 | 130 | 4.8 | 0.0 | 0.00 | 0.00 | 0.00 | 75 | 1007.7 |
| 20260509044556 | 8 | 111 | 6.4 | 0.0 | 0.00 | 0.00 | 0.00 | 73 | 1007.8 |
| 20260509043051 | 8 | 140 | 4.8 | 0.0 | 0.00 | 0.00 | 0.00 | 73 | 1008.0 |
| 20260509041552 | 8 | 125 | 4.8 | 0.0 | 0.00 | 0.00 | 0.00 | 72 | 1008.1 |
| 20260509040048 | 8 | 111 | 6.4 | 0.0 | 0.00 | 0.00 | 0.00 | 71 | 1008.4 |
| 20260509034547 | 8 | 134 | 6.4 | 0.0 | 0.00 | 0.00 | 0.00 | 69 | 1008.5 |
| 20260509033102 | 9 | 159 | 4.8 | 0.0 | 0.00 | 0.00 | 0.00 | 67 | 1008.5 |
| 20260509031546 | 9 | 141 | 4.8 | 0.0 | 0.00 | 0.00 | 0.00 | 65 | 1008.6 |
| 20260509030048 | 10 | 168 | 4.8 | 0.0 | 0.00 | 0.00 | 0.00 | 62 | 1008.8 |
| 20260509024554 | 10 | 168 | 8.0 | 0.0 | 0.00 | 0.00 | 0.00 | 61 | 1008.9 |
| 20260509023045 | 10 | 152 | 6.4 | 0.0 | 0.00 | 0.00 | 0.00 | 60 | 1009.0 |
| 20260509021545 | 10 | 167 | 3.2 | 0.0 | 0.00 | 0.00 | 0.00 | 58 | 1008.9 |
| 20260509020047 | 10 | 170 | 4.8 | 0.0 | 0.00 | 0.00 | 0.00 | 57 | 1008.9 |
| 20260509014544 | 10 | 138 | 6.4 | 0.0 | 0.00 | 0.00 | 0.00 | 56 | 1008.5 |
| 20260509013048 | 10 | 137 | 4.8 | 0.0 | 0.00 | 0.00 | 0.00 | 54 | 1008.4 |
| 20260509011545 | 10 | 143 | 4.8 | 0.0 | 0.00 | 0.00 | 0.00 | 53 | 1008.3 |
| 20260509010043 | 11 | 157 | 3.2 | 0.0 | 0.00 | 0.00 | 0.00 | 50 | 1008.4 |
| 20260509004510 | 11 | 144 | 6.4 | 0.0 | 0.00 | 0.00 | 0.00 | 49 | 1008.3 |
| 20260509003010 | 11 | 147 | 4.8 | 0.0 | 0.00 | 0.00 | 0.00 | 48 | 1008.3 |
| 20260509001509 | 11 | 177 | 6.4 | 0.0 | 0.00 | 0.00 | 0.00 | 48 | 1008.5 |
| 20260509000008 | 12 | 145 | 8.0 | 0.0 | 0.00 | 0.00 | 0.00 | 46 | 1008.5 |
| 20260508234508 | 12 | 147 | 9.7 | 0.0 | 0.00 | 0.00 | 0.00 | 44 | 1008.5 |
| 20260508233008 | 12 | 157 | 9.7 | 0.0 | 0.00 | 0.00 | 0.00 | 44 | 1008.2 |
| 20260508231506 | 13 | 161 | 9.7 | 0.0 | 0.00 | 0.00 | 0.00 | 44 | 1008.7 |
| 20260508230007 | 13 | 160 | 9.7 | 0.0 | 0.00 | 0.00 | 0.00 | 43 | 1008.8 |
| 20260508224515 | 13 | 176 | 8.0 | 0.0 | 0.00 | 0.00 | 0.00 | 41 | 1008.7 |
| 20260508223004 | 13 | 139 | 11.3 | 0.0 | 0.00 | 0.00 | 0.00 | 40 | 1008.8 |
| 20260508221503 | 13 | 188 | 12.9 | 0.0 | 0.00 | 0.00 | 0.00 | 39 | 1008.7 |
| 20260508220003 | 13 | 190 | 12.9 | 0.0 | 0.00 | 0.00 | 0.00 | 39 | 1008.7 |
| 20260508214503 | 14 | 177 | 14.5 | 0.0 | 0.00 | 0.00 | 0.00 | 40 | 1008.7 |
| 20260508213006 | 14 | 184 | 14.5 | 0.0 | 0.00 | 0.00 | 0.00 | 40 | 1008.7 |
| 20260508211501 | 14 | 163 | 14.5 | 0.0 | 0.00 | 0.00 | 0.00 | 38 | 1008.6 |
| 20260508210002 | 15 | 206 | 14.5 | 0.0 | 0.00 | 0.00 | 0.00 | 39 | 1008.7 |
| 20260508204501 | 15 | 196 | 14.5 | 0.0 | 0.00 | 0.00 | 0.00 | 38 | 1008.8 |
| 20260508203108 | 15 | 199 | 16.1 | 0.0 | 0.00 | 0.00 | 0.00 | 41 | 1008.8 |
| 20260508201604 | 14 | 192 | 11.3 | 0.0 | 0.00 | 0.00 | 0.00 | 41 | 1008.8 |
| 20260508200111 | 15 | 183 | 12.9 | 0.0 | 0.00 | 0.00 | 0.00 | 39 | 1009.0 |
| 20260508194602 | 17 | 174 | 16.1 | 0.0 | 0.00 | 0.00 | 0.00 | 37 | 1008.9 |
| 20260508193105 | 18 | 284 | 6.4 | 0.0 | 0.00 | 0.00 | 0.00 | 23 | 1009.0 |
| 20260508191556 | 18 | 168 | 6.4 | 0.0 | 0.00 | 0.00 | 0.00 | 24 | 1009.1 |
| 20260508190053 | 17 | 241 | 8.0 | 0.0 | 0.00 | 0.00 | 0.00 | 26 | 1009.3 |
| 20260508184550 | 17 | 276 | 11.3 | 0.0 | 0.00 | 0.00 | 0.00 | 26 | 1009.6 |
| 20260508183100 | 16 | 276 | 9.7 | 0.0 | 0.00 | 0.00 | 0.00 | 27 | 1009.8 |
| 20260508181557 | 17 | 232 | 11.3 | 0.0 | 0.00 | 0.00 | 0.00 | 27 | 1009.9 |
| 20260508180044 | 16 | 255 | 9.7 | 0.0 | 0.00 | 0.00 | 0.00 | 25 | 1010.1 |
| 20260508174542 | 16 | 216 | 11.3 | 0.0 | 0.00 | 0.00 | 0.00 | 27 | 1010.2 |
| 20260508173041 | 16 | 313 | 6.4 | 0.0 | 0.00 | 0.00 | 0.00 | 26 | 1010.4 |
| 20260508171547 | 16 | 227 | 11.3 | 0.0 | 0.00 | 0.00 | 0.00 | 26 | 1010.6 |
| 20260508170038 | 16 | 264 | 9.7 | 0.0 | 0.00 | 0.00 | 0.00 | 26 | 1010.7 |
| 20260508164536 | 16 | 245 | 11.3 | 0.0 | 0.00 | 0.00 | 0.00 | 27 | 1010.9 |
| 20260508163037 | 15 | 259 | 8.0 | 0.0 | 0.00 | 0.00 | 0.00 | 28 | 1011.2 |
| 20260508161538 | 15 | 272 | 8.0 | 0.0 | 0.00 | 0.00 | 0.00 | 26 | 1011.4 |
| 20260508160036 | 15 | 215 | 11.3 | 0.0 | 0.00 | 0.00 | 0.00 | 28 | 1011.3 |
| 20260508154533 | 16 | 315 | 6.4 | 0.0 | 0.00 | 0.00 | 0.00 | 27 | 1011.4 |
| 20260508153030 | 15 | 269 | 8.0 | 0.0 | 0.00 | 0.00 | 0.00 | 32 | 1011.6 |
| 20260508151529 | 14 | 213 | 8.0 | 0.0 | 0.00 | 0.00 | 0.00 | 29 | 1011.5 |
| 20260508150037 | 15 | 294 | 4.8 | 0.0 | 0.00 | 0.00 | 0.00 | 31 | 1011.7 |
| 20260508144538 | 15 | 278 | 6.4 | 0.0 | 0.00 | 0.00 | 0.00 | 31 | 1011.9 |
| 20260508143034 | 13 | 345 | 6.4 | 0.0 | 0.00 | 0.00 | 0.00 | 35 | 1011.9 |
| 20260508141526 | 13 | 289 | 6.4 | 0.0 | 0.00 | 0.00 | 0.00 | 39 | 1011.8 |
| 20260508140024 | 14 | 255 | 4.8 | 0.0 | 0.00 | 0.00 | 0.00 | 39 | 1011.9 |
| 20260508134519 | 13 | 241 | 4.8 | 0.0 | 0.00 | 0.00 | 0.00 | 42 | 1011.9 |
| 20260508133017 | 12 | 287 | 6.4 | 0.0 | 0.00 | 0.00 | 0.00 | 49 | 1011.9 |
| 20260508131514 | 11 | 217 | 4.8 | 0.0 | 0.00 | 0.00 | 0.00 | 49 | 1011.6 |
| 20260508130014 | 11 | 180 | 4.8 | 0.0 | 0.00 | 0.00 | 0.00 | 51 | 1011.6 |
| 20260508124511 | 11 | 256 | 3.2 | 0.0 | 0.00 | 0.00 | 0.00 | 55 | 1011.7 |
| 20260508123007 | 10 | 208 | 3.2 | 0.0 | 0.00 | 0.00 | 0.00 | 60 | 1011.6 |
| 20260508121505 | 10 | 259 | 4.8 | 0.0 | 0.00 | 0.00 | 0.00 | 58 | 1011.4 |
| 20260508120005 | 9 | 213 | 4.8 | 0.0 | 0.00 | 0.00 | 0.00 | 62 | 1011.6 |
| 20260508114603 | 7 | 229 | 3.2 | 0.0 | 0.00 | 0.00 | 0.00 | 72 | 1011.6 |
| 20260508113044 | 4 | 199 | 3.2 | 0.0 | 0.00 | 0.00 | 0.00 | 84 | 1011.7 |
| 20260508111524 | 2 | 338 | 0.0 | 0.0 | 0.00 | 0.00 | 0.00 | 82 | 1011.6 |
| 20260508110022 | 2 | 338 | 0.0 | 0.0 | 0.00 | 0.00 | 0.00 | 81 | 1011.7 |
| 20260508104521 | 3 | 338 | 0.0 | 0.0 | 0.00 | 0.00 | 0.00 | 80 | 1011.4 |
| 20260508103019 | 3 | 338 | 0.0 | 0.0 | 0.00 | 0.00 | 0.00 | 80 | 1011.4 |
| 20260508101517 | 3 | 338 | 0.0 | 0.0 | 0.00 | 0.00 | 0.00 | 80 | 1011.4 |
| 20260508100016 | 4 | 338 | 0.0 | 0.0 | 0.00 | 0.00 | 0.00 | 79 | 1011.4 |
| 20260508094513 | 4 | 338 | 0.0 | 0.0 | 0.00 | 0.00 | 0.00 | 79 | 1011.2 |
| 20260508093014 | 5 | 345 | 0.0 | 0.0 | 0.00 | 0.00 | 0.00 | 78 | 1011.3 |
| 20260508091510 | 5 | 345 | 0.0 | 0.0 | 0.00 | 0.00 | 0.00 | 78 | 1011.5 |